Weather in Fil'kino

Russia / Belgorod Oblast     50°31′31″N   38°19′55″E
temp.,
°C
wind,
m/s
gust,
m/s
humid.,
%
clouds,
%
prec.,
mm/h
press.,
hPa
HPBL,
m
14 may, fri
fri1400:00+14e358897 0.0 101591
03:00+12ese349287 0.1 101557
06:00+13ese41091100 0.1 1014187
09:00+18ese61277100 0.1 1013549
12:00+20se71176100 0.1 1013693
15:00+22ese61067100 0.1 1011597
18:00+21se61374100 0.0 1010651
21:00+18se4118786 0.0 1010195
15 may, sat
sat1500:00+16s3692100 0.0 1011106
03:00+15wsw22897 0.0 101112
06:00+15sw2383100 0.0 101247
09:00+18sw3572100 0.0 1013256
12:00+22sw455461 0.0 10141099
15:00+23ssw4553100 0.0 10131460
18:00+22sw24645 0.0 1013429
21:00+17w117553 0.0 101311
16 may, sun
sun1600:00+16ne1176100 0.0 101311
03:00+17e227277 0.0 101428
06:00+15e22825 0.0 101427
09:00+21ene23685 0.0 1014443
12:00+24ne346148 0.0 10131134
15:00+25ene445980 0.0 10121486
18:00+23ene3576100 2.0 1011138
21:00+18e337694 2.0 101127
17 may, mon
mon1700:00+16ene458076 0.0 101073
03:00+14e4983100 0.0 1009128
06:00+15ese5137797 0.0 1009243
09:00+21se6156198 0.0 1009635
12:00+25se81654100 0.0 10071575
15:00+26se714547 0.0 10071753
18:00+23se596536 0.0 1007391
21:00+19se48775 0.0 1007120
18 may, tue
tue1800:00+17sse38837 0.0 1007123
03:00+16sse379376 0.0 1007146
06:00+16ssw41097100 0.4 1007325
09:00+20s588377 1.0 1008833
12:00+23ssw686485 0.0 10091367
15:00+23sw5758100 0.1 10091597
18:00+20wsw4674100 0.9 1009202
21:00+18ese227784 1.3 101014